Regional Weather Roundup
Issued by NWS

Home | Current Version | Previous Version | Text Only | Print | Product List | Glossary On
Versions: 1 2 3 4 5 6 7 8 9 10 11 12 13 14 15 16 17 18 19 20 21 22 23 24 25 26 27 28 29 30 31 32 33 34 35 36 37 38 39 40 41 42 43 44 45 46 47 48 49 50
000
ASUS43 KDTX 261010
RWRMI
MICHIGAN HOURLY REGIONAL WEATHER ROUNDUP
NATIONAL WEATHER SERVICE DETROIT/PONTIAC MI
600 AM EDT WED APR 26 2017

NOTE: "FAIR" INDICATES FEW OR NO CLOUDS BELOW 12,000 FEET WITH NO
SIGNIFICANT WEATHER AND/OR OBSTRUCTION TO VISIBILITY.

MIZ047>049-052>055-059>063-066>070-074>076-081>083-261100-
SOUTHEAST LOWER MICHIGAN

CITY           SKY/WX    TMP DP  RH WIND       PRES   REMARKS
ADRIAN         MOCLDY    53  52  96 SE5       29.67F
ALMA           CLOUDY    59  54  83 SE8       29.64F
ANN ARBOR      CLOUDY    55  54  96 E3        29.68F
BAD AXE        CLOUDY    52  50  92 SE6       29.71F
CARO           PTCLDY    55  52  90 SE8       29.68F
DETROIT CITY   PTCLDY    51  50  96 E3        29.72S FOG
DETROIT        MOCLDY    55  53  93 E7        29.70F
FLINT          PTCLDY    56  52  86 SE10      29.67F
GROSSE ILE     CLEAR     56  53  91 SE7       29.69S
HILLSDALE      PTCLDY    57  52  82 SE6       29.64F
HOWELL         MOCLDY    56  52  86 SE8       29.67F

CITY           SKY/WX    TMP DP  RH WIND       PRES   REMARKS
JACKSON        MOCLDY    58  53  84 SE10      29.65F
LAMBERTVILLE   CLEAR     57  54  88 S6        29.68S
LANSING        MOCLDY    60  52  74 SE10      29.64F
LAPEER         FAIR      53  51  94 SE9       29.70F
MASON          CLOUDY    58  54  86 SE8       29.66S
MONROE         CLEAR     55  53  95 E12       29.68S
MT. CLEMENS    PTCLDY    49  49 100 E3        29.71S
PONTIAC        PTCLDY    52  50  93 SE7       29.69F
PORT HOPE        N/A     50  48  93 SE10      29.70S
PORT HURON     PTCLDY    52  48  87 SE3       29.74R
TRI CITIES     CLOUDY    59  54  83 SE13      29.66F
MIDLAND        CLOUDY    60  52  73 SE8       29.64S
TROY           CLEAR     52  49  90 E6        29.73S
SAGINAW HB     CLOUDY    55  50  82 SE8       29.66S
$$
MIZ043>046-050>051-056>058-064>065-071>073-077>080-261100-
SOUTHWEST LOWER MICHIGAN

CITY           SKY/WX    TMP DP  RH WIND       PRES   REMARKS
BATTLE CREEK   CLEAR     60  54  80 SE9       29.62F
BENTON HARBOR  PTCLDY    64  54  69 SE8       29.54F
BIG RAPIDS     CLOUDY    58  52  79 SE8       29.60S
COLDWATER      MOCLDY    58  54  85 SE8       29.63S
FREMONT        MOCLDY    61  52  72 SE8       29.57S
HOLLAND        CLOUDY    61  54  77 SE10      29.56F
GRAND RAPIDS   CLOUDY    60  55  83 SE9       29.59F
IONIA          MOCLDY    58  53  84 SE9       29.61F
KALAMAZOO      PTCLDY    61  52  72 SE7       29.61S
LUDINGTON      CLOUDY    63  55  75 SE10      29.54S
MARSHALL       MOCLDY    59  55  85 SE7       29.63S
MOUNT PLEASANT CLOUDY    59  52  78 SE8       29.63S
MUSKEGON       CLOUDY    63  54  72 SE14      29.55S
SOUTH HAVEN    PTCLDY    62  55  78 SE5       29.55F
$$
MIZ016>042-261100-
NORTHERN LOWER MICHIGAN

CITY           SKY/WX    TMP DP  RH WIND       PRES   REMARKS
ALPENA         FOG       45  45 100 E7        29.70F VSB 1/4
BEAVER ISLAND  LGT RAIN  42  42  98 E10       29.60F
BELLAIRE       CLOUDY    62  52  69 CALM      29.59S
CADILLAC       CLOUDY    59  53  80 SE9       29.61R
CHARLEVOIX     CLOUDY    59  52  78 E8        29.61F
FRANKFORT      CLOUDY    63  53  70 SE8G17    29.54F
GAYLORD        MOCLDY    56  50  80 S9        29.64F
GRAYLING       CLOUDY    55  51  86 SE9       29.65S
HARBOR SPRINGS MOCLDY    51  49  93 E10       29.61F
HOUGHTON LAKE  CLOUDY    56  51  84 SE13      29.64F
MANISTEE       CLOUDY    62  54  74 E9        29.54F
OSCODA         CLOUDY    49  47  95 S6        29.68F FOG
PELLSTON       CLOUDY    47  44  90 NE5       29.64F
ROGERS CITY    CLOUDY    49  47  94 SE7       29.68F FOG
TRAVERSE CITY  CLOUDY    63  53  70 SE10      29.57S
$$
MIZ007>008-015-261100-
EASTERN UPPER MICHIGAN

CITY           SKY/WX    TMP DP  RH WIND       PRES   REMARKS
KINROSS        CLOUDY    47  46  97 E22G28    29.65F FOG
MACKINAC ISLAN FOG       41  41 100 E21G30    29.65S VSB 1/4
NEWBERRY       CLOUDY    46  46  97 E9        29.63S FOG
S. S. MARIE    CLOUDY    51  48  89 E10       29.68F
MUNISING         N/A     41  41 100 N5        29.59F
$$
MIZ004>006-011>014-085-261100-
CENTRAL UPPER MICHIGAN

CITY           SKY/WX    TMP DP  RH WIND       PRES   REMARKS
MANISTIQUE     CLOUDY    49  48  97 E12G18    29.58F
ESCANABA       LGT RAIN  49  48  97 NE8       29.56F
MENOMINEE      LGT RAIN  46  45  96 NE7       29.53F
SAWYER-GWINN   RAIN      39  38  97 NE8       29.60F WCI  34
$$
MIZ001>003-009>011-084-261100-
WESTERN UPPER MICHIGAN

CITY           SKY/WX    TMP DP  RH WIND       PRES   REMARKS
IRON MOUNTAIN  LGT RAIN  51  48  89 NE8       29.52F
HOUGHTON       LGT RAIN  35  32  88 NE16G24   29.63F WCI  25
COPPER HARBOR    N/A     34  32  92 E16G26    29.70F WCI  24
IRONWOOD       RAIN      33  32  96 NE5       29.59F WCI  29
$$

ABBREVIATIONS USED IN REMARKS
   TC - TEMPERATURE IN CELSIUS
  WCI - WIND CHILL INDEX
   HX - HEAT INDEX
  VSB - VISIBILITY




USA.gov is the U.S. government's official web portal to all federal, state and local government web resources and services.